This demonstration page uses our WeatherBlox Daily Observations layout. Learn more.

Left ArrowRight Arrow

Hourly Observations for June 16, 2021

Temp ( °F °C ) Dew Point ( °F °C ) Humidity (%) Winds ( mph kmh ) Pressure ( in mb ) Visibility ( mi km ) Precip ( " mm )
12:59 am 00:59 Clear 68 20 59 15 73 73 Calm 29.87 1012 10 16 0.00 0.00
1:59 am 01:59 Mostly Clear 67 19.4 59 15 76 76 Calm 29.88 1012 10 16 0.00 0.00
2:59 am 02:59 Partly Cloudy 74 23.3 58 14.4 57 57 WNW 9 15 29.86 1011 10 16 0.00 0.00
3:59 am 03:59 Partly Cloudy 73 22.8 57 13.9 57 57 NW 9 15 29.87 1012 10 16 0.00 0.00
4:59 am 04:59 Mostly Clear 71 21.7 57 13.9 61 61 WNW 7 11 29.87 1012 10 16 0.00 0.00
5:59 am 05:59 Mostly Sunny 71 21.7 56 13.3 59 59 NW 10 17 29.89 1012 10 16 0.00 0.00
6:59 am 06:59 Mostly Sunny 72 22.2 57 13.9 59 59 NW 15 24 29.91 1013 10 16 0.00 0.00
7:59 am 07:59 Partly Cloudy 73 22.8 58 14.4 59 59 NNW 13 20 29.91 1013 10 16 0.00 0.00
8:59 am 08:59 Mostly Sunny 74 23.3 58 14.4 57 57 NW 6 9 29.92 1013 10 16 0.00 0.00
9:59 am 09:59 Sunny 76 24.4 57 13.9 52 52 NNW 8 13 29.93 1014 10 16 0.00 0.00
10:59 am 10:59 Mostly Sunny 78 25.6 57 13.9 48 48 N 8 13 29.93 1014 10 16 0.00 0.00
11:59 am 11:59 Partly Cloudy 77 25 60 15.6 56 56 N 6 9 29.94 1014 10 16 0.00 0.00
12:59 pm 12:59 Partly Cloudy 79 26.1 58 14.4 49 49 W 12 19 29.94 1014 10 16 0.00 0.00
1:59 pm 13:59 Mostly Sunny 80 26.7 55 12.8 42 42 W 10 17 29.93 1014 10 16 0.00 0.00
2:59 pm 14:59 Mostly Sunny 81 27.2 56 13.3 42 42 NNW 12 19 29.93 1014 10 16 0.00 0.00
3:59 pm 15:59 Sunny 82 27.8 57 13.9 42 42 N 7 11 29.93 1013 10 16 0.00 0.00
4:59 pm 16:59 Mostly Sunny 80 26.7 61 16.1 52 52 VRB 5 7 29.93 1013 10 16 0.00 0.00
5:59 pm 17:59 Mostly Sunny 79 26.1 60 15.6 52 52 NE 9 15 29.92 1013 10 16 0.00 0.00
6:59 pm 18:59 Mostly Sunny 77 25 61 16.1 58 58 ENE 7 11 29.92 1013 10 16 0.00 0.00
7:59 pm 19:59 Mostly Sunny 76 24.4 60 15.6 58 58 ENE 6 9 29.93 1014 10 16 0.00 0.00
8:59 pm 20:59 Mostly Clear 71 21.7 61 16.1 71 71 E 3 6 29.95 1014 10 16 0.00 0.00
9:59 pm 21:59 Mostly Clear 69 20.6 61 16.1 76 76 Calm 29.97 1015 10 16 0.00 0.00
10:59 pm 22:59 Partly Cloudy 67 19.4 61 16.1 81 81 SE 5 7 29.98 1015 10 16 0.00 0.00
11:59 pm 23:59 Mostly Clear 67 19.4 61 16.1 81 81 Calm 29.98 1015 10 16 0.00 0.00

Powered by AerisWeather